Home   Weather   36°04'N, 95°52'W   Past weeks
Flag for USA

Past Weather in 36°04'N, 95°52'W, USA — Yesterday and Last 2 Weeks

Now
72 °F

Sunny.


Feels Like: 77 °F
Forecast: 73 / 49 °F
Wind: 13 mph from Southeast

Location: Tulsa International Airport

Current Time: Oct 18, 2019 at 4:20:15 pm

Latest Report: Oct 18, 2019 at 2:53 pm


Visibility: 10 mi

Pressure: 29.73 "Hg

Humidity: 41%

Dew Point: 47 °F

Location of 36°04'N, 95°52'WLocation

Past Weather in 36°04'N, 95°52'W — Graph

°F

36°04'N, 95°52'W Temperature Yesterday

Maximum temperature yesterday: 72 °F (at 3:53 pm)
Minimum temperature yesterday: 42 °F (at 6:53 am)
Average temperature yesterday: 58 °F

High & Low Weather Summary for the Past Weeks

 TemperatureHumidityPressure
High82 °F (Oct 5, 3:53 pm)100% (Oct 6, 6:53 am)30.32 "Hg (Oct 6, 6:53 am)
Low35 °F (Oct 12, 4:53 am)26% (Oct 12, 3:53 pm)29.72 "Hg (Oct 10, 4:53 am)
Average60 °F73%30.03 "Hg
* Reported Oct 3 2:53 pm — Oct 18 2:53 pm, 36°04'N, 95°52'W. Weather by CustomWeather, © 2019

Note: Actual official high and low records may vary slightly from our data, if they occured in-between our weather recording intervals... More about our weather records

Advertising

36°04'N, 95°52'W Weather History for the Previous 24 Hours

Scroll right to see more
 ConditionsComfort  
Time TempWeatherWind HumidityBarometerVisibility
2:53 pm
Fri, Oct 18
72 °FSunny.13 mph41%29.73 "Hg10 mi
1:53 pm70 °FSunny.22 mph42%29.76 "Hg10 mi
12:53 pm68 °FPassing clouds.16 mph47%29.80 "Hg10 mi
11:53 am65 °FPassing clouds.17 mph59%29.83 "Hg10 mi
10:53 am62 °FPassing clouds.17 mph62%29.85 "Hg10 mi
9:53 am57 °FPassing clouds.16 mph74%29.87 "Hg10 mi
8:53 am53 °FPassing clouds.12 mph86%29.88 "Hg10 mi
7:53 am51 °FPassing clouds.10 mph89%29.89 "Hg10 mi
6:53 am52 °FPassing clouds.9 mph83%29.88 "Hg10 mi
5:53 am52 °FPassing clouds.8 mph83%29.88 "Hg10 mi
4:53 am53 °FPassing clouds.8 mph83%29.88 "Hg10 mi
3:53 am54 °FPassing clouds.10 mph80%29.86 "Hg10 mi
2:53 am55 °FPassing clouds.12 mph77%29.86 "Hg10 mi
1:53 am56 °FPassing clouds.13 mph75%29.86 "Hg10 mi
12:53 am58 °FPassing clouds.14 mph70%29.86 "Hg10 mi
11:53 pm
Thu, Oct 17
60 °FPassing clouds.15 mph65%29.87 "Hg10 mi
10:53 pm59 °FPassing clouds.12 mph69%29.88 "Hg10 mi
9:53 pm60 °FClear.10 mph67%29.88 "Hg10 mi
8:53 pm62 °FClear.12 mph62%29.88 "Hg10 mi
7:53 pm65 °FPassing clouds.10 mph52%29.88 "Hg10 mi
6:53 pm67 °FClear.10 mph49%29.88 "Hg10 mi
5:53 pm70 °FPassing clouds.13 mph44%29.88 "Hg10 mi
4:53 pm72 °FSunny.10 mph41%29.89 "Hg10 mi
Weather by CustomWeather, © 2019

See weather overview